Skip Page Navigation
NASA JPL Caltech
NASA Logo - Jet Propulsion Laboratory + View the NASA Portal
+ Center for Near-Earth Object Studies
JPL Home Earth Solar System Stars & Galaxies Technology
JPL Solar System Dynamics
BODIES ORBITS EPHEMERIDES TOOLS PHYSICAL DATA DISCOVERY FAQ SITE MAP
JPL Small-Body Database Browser
Search: [ help ]  
214853 (2006 WL106)
Classification: Main-belt Asteroid          SPK-ID: 2214853
Ephemeris | Orbit Diagram | Orbital Elements | Mission Design | Physical Parameters | Discovery Circumstances | Close-Approach Data ]

[ show orbit diagram ]
Orbital Elements at Epoch 2459000.5 (2020-May-31.0) TDB
Reference: JPL 11 (heliocentric ecliptic J2000)
 Element Value Uncertainty (1-sigma)   Units 
e .03877373300962486 7.9509e-08  
a 3.086100764958515 4.1156e-08 au
q 2.966441117857214 2.6858e-07 au
i 2.136876620827532 6.9162e-06 deg
node 112.7953589468575 0.0002178 deg
peri 225.155211333384 0.00024516 deg
M 263.4162359760563 0.0001186 deg
tp 2459531.769893932226
(2021-Nov-13.26989393)
0.00065662 TDB
period 1980.220627642837
5.42
3.9612e-05
1.085e-07
d
yr
n .1817979244204356 3.6367e-09 deg/d
Q 3.205760412059816 4.2752e-08 au
  Orbit Determination Parameters
   # obs. used (total)      186  
   data-arc span      8893 days (24.35 yr)  
   first obs. used      1995-12-16  
   last obs. used      2020-04-21  
   planetary ephem.      DE431  
   SB-pert. ephem.      SB431-N16  
   condition code      0  
   norm. resid. RMS      .63239  
   source      ORB  
   producer      Otto Matic  
   solution date      2020-May-21 09:12:09  

Additional Information
 Earth MOID = 1.95715 au 
 Jupiter MOID = 1.95411 au 
 T_jup = 3.224 
[ show covariance matrix ]

Ephemeris | Orbit Diagram | Orbital Elements | Mission Design | Physical Parameters | Discovery Circumstances | Close-Approach Data ]

Physical Parameter Table
Parameter Symbol Value Units Sigma Reference Notes
absolute magnitude H 16.0   n/a MPO470307  
diameter diameter 3.572 km 0.900 urn:nasa:pds:neowise_diameters_albedos::2.0[mainbelt] (http://adsabs.harvard.edu/abs/2011ApJ...741...68M)  
geometric albedo albedo 0.060   0.026 urn:nasa:pds:neowise_diameters_albedos::2.0[mainbelt] (http://adsabs.harvard.edu/abs/2011ApJ...741...68M)  

214853 (2006 WL106)          Discovered 2006-Nov-19 by Spacewatch at Kitt Peak
Reference: 20090509/Numbers.arcLast Updated: 2009-05-11

[ show close-approach data ]
Ephemeris | Orbit Diagram | Orbital Elements | Mission Design | Physical Parameters | Discovery Circumstances | Close-Approach Data ]
ABOUT SSD CREDITS/AWARDS PRIVACY/COPYRIGHT GLOSSARY LINKS
FirstGov 2020-Aug-15 14:16 UT
(server date/time)  
NASA Home Page
Site Manager:   Ryan S. Park
Webmaster  Alan B. Chamberlin